[[{"header":{"parameterUnit":"m.s-1","parameterCategory":1,"la1":30.2991,"la2":30.254,"lo1":-89.0895,"lo2":-89.0444,"dy":0.0017,"dx":0.0017,"nx":28,"ny":28,"refTime":"2025-03-16T03:00:00:Z","depth":0,"parameterNumber":2,"parameterNumberName":"U-component_of_WINDS"},"data":[0,0,0,0,0,0,0,0,0,0,0,0,0,0,0,0,0,0,0,0,0,0,0,0,0,0,0,0,0,0,0,0,0,0,0,0,0,0,0,0,0,0,0,0,0,0,0,0,0,0,0,0,0,0,0,0,0,0,2.4319,2.4319,0,2.4342,2.4342,2.4342,2.4307,2.4306,2.4305,2.4304,2.4326,2.4328,2.433,0,0,0,0,0,0,0,0,0,0,0,0,0,2.4245,2.4246,2.4319,2.4319,2.4319,2.4341,2.4342,2.4342,2.4308,2.4306,2.4305,2.4303,2.4326,2.4328,2.433,0,0,0,0,0,0,0,0,0,0,0,0,0,2.4273,2.4247,2.4319,2.4305,2.4304,2.4341,2.4342,2.4342,2.4308,2.4306,2.4304,2.4303,2.4325,2.4328,2.433,2.4382,0,0,2.4338,2.4339,0,0,0,0,0,0,0,0,2.4272,2.4276,2.4306,2.4306,2.4305,2.432,2.4324,2.4356,2.4308,2.4306,2.4304,2.4302,2.4326,2.4328,2.4336,2.4383,2.4384,2.4338,2.434,2.4341,2.4342,0,0,0,0,0,0,0,2.427,2.4275,2.4328,2.4307,2.4306,2.4297,2.4299,2.433,2.4326,2.4306,2.4304,2.4307,2.4325,2.4334,2.4337,2.4385,2.4338,2.4341,2.4342,2.4343,2.4476,2.4478,0,0,0,0,0,0,2.4269,2.4273,2.4327,2.4328,2.4283,2.43,2.4302,2.4317,2.4325,2.4325,2.4309,2.4305,2.433,2.4334,2.4337,2.4399,2.4341,2.4343,2.4345,2.4474,2.4477,2.4479,0,0,0,0,0,0,2.4268,2.4275,2.4326,2.43,2.4306,2.4303,2.432,2.4318,2.4327,2.4327,2.4326,2.4319,2.4329,2.4334,2.4372,2.4399,2.4345,2.4347,2.4472,2.4475,2.4478,2.4522,0,0,0,0,0,0,2.4266,2.4274,2.4294,2.4301,2.4308,2.436,2.4321,2.432,2.4332,2.4328,2.4336,2.4336,2.4328,2.4368,2.4374,2.4402,2.4349,2.4469,2.4473,2.4477,2.4518,2.4527,2.4533,0,0,0,0,0,2.4263,2.4306,2.4295,2.4302,2.4332,2.4362,2.4366,2.4356,2.4334,2.4354,2.4354,2.4336,2.4395,2.4372,2.4379,2.4408,2.4468,2.4472,2.4476,2.4515,2.4525,2.4533,0,0,0,0,0,0,2.4301,2.4306,2.4295,2.434,2.4351,2.4356,2.438,2.4367,2.4383,2.4379,2.4366,2.4368,2.4409,2.4412,2.4386,2.4459,2.4428,2.4434,2.4455,2.4464,2.4472,2.447,2.4351,0,0,0,0,0,2.4315,2.4339,2.4342,2.4382,2.4388,2.4383,2.4396,2.4387,2.4398,2.4402,2.4405,2.4415,2.4437,2.4451,2.447,2.4519,2.452,2.4542,2.455,2.4556,2.4561,2.4587,2.4597,2.4493,2.4493,2.4493,0,0,2.4344,2.4349,2.4365,2.439,2.4397,2.4421,2.4387,2.4415,2.4433,2.4406,2.4442,2.4445,2.4456,2.45,2.4519,2.4503,2.459,2.4562,2.4566,2.4568,2.4593,2.4602,2.4611,2.4496,2.4496,2.4495,0,0,2.4408,2.4415,2.4449,2.4457,2.4469,2.4466,2.4474,2.4481,2.4482,2.4518,2.4499,2.452,2.4557,2.4565,2.4575,2.4643,2.4627,2.465,2.4689,2.4715,2.4723,2.473,2.4754,2.4763,2.4655,2.4656,2.4656,0,2.4442,2.4479,2.4468,2.4497,2.4508,2.4486,2.452,2.4529,2.4546,2.4554,2.4537,2.4583,2.4589,2.4634,2.4651,2.4659,2.4668,2.4649,2.4723,2.473,2.4736,2.4759,2.4768,2.4658,2.4658,2.4658,2.4657,0,2.4519,2.4545,2.4571,2.4589,2.4603,2.4635,2.4629,2.4645,2.4636,2.4635,2.4672,2.4678,2.4699,2.4709,2.47,2.4753,2.4743,2.4725,2.4693,2.4749,2.477,2.4779,2.4662,2.4661,2.466,2.466,0,0,2.4607,2.462,2.4629,2.4637,2.4649,2.4668,2.4699,2.4719,2.4733,2.4746,2.4771,2.4803,2.4786,2.4797,2.4789,2.4812,2.4865,2.479,2.479,2.4803,2.4924,2.4938,2.4948,2.4855,2.4857,2.4858,2.4923,0,2.4671,2.4724,2.4716,2.4767,2.4791,2.477,2.4797,2.4807,2.4807,2.4827,2.4827,2.485,2.4826,2.4832,2.4854,2.4854,2.4889,2.485,2.4878,2.4879,2.4875,2.4959,2.4974,2.5035,2.4932,2.4933,2.4934,0,2.4753,2.4769,2.4823,2.4831,2.4841,2.4865,2.4883,2.4902,2.4913,2.4912,2.4924,2.4912,2.4943,2.4912,2.4954,2.4927,2.4938,2.494,2.4943,2.4944,2.4909,2.4963,2.5054,2.5063,2.4947,2.4946,2.4945,0,2.4811,2.4846,2.4883,2.4891,2.4901,2.4919,2.4924,2.4933,2.4946,2.4962,2.497,2.499,2.5,2.5015,2.5009,2.4987,2.5052,2.5021,2.5051,2.5052,2.5065,2.5064,2.5159,2.5074,2.5074,2.5074,2.5073,0,2.4883,2.4916,2.4909,2.4932,2.4969,2.4959,2.4996,2.4999,2.5008,2.503,2.5014,2.5036,2.5026,2.5047,2.5043,2.5078,2.5083,2.5082,2.5081,2.5083,2.5083,2.509,2.5085,2.5076,2.5076,2.5075,2.5075,0,2.4953,2.495,2.4989,2.4996,2.4999,2.5026,2.5032,2.5053,2.5052,2.5081,2.5087,2.5086,2.511,2.5105,2.5132,2.5128,2.5173,2.5166,2.5169,2.5167,2.5198,2.5195,2.53,2.5313,2.522,2.5221,2.5222,0,2.4999,2.5024,2.5035,2.5049,2.5055,2.5078,2.5091,2.5083,2.5098,2.5113,2.5132,2.5155,2.5172,2.5211,2.5213,2.5233,2.5226,2.5262,2.5229,2.5231,2.5226,2.5224,2.5227,2.5268,2.5269,2.527,2.527,0,2.508,2.5077,2.5097,2.5117,2.5133,2.5148,2.5161,2.5174,2.5167,2.5184,2.5208,2.5222,2.5249,2.5272,2.5291,2.5296,2.5282,2.5281,2.5289,2.5291,2.5292,2.5292,2.5186,2.5278,2.5277,2.5277,2.5276,2.5276,2.5139,2.5161,2.5171,2.5194,2.5203,2.5216,2.5236,2.5239,2.5259,2.528,2.5275,2.5302,2.5313,2.5337,2.5345,2.5366,2.5353,2.5365,2.5368,2.5371,2.5374,2.5289,2.537,2.537,2.5369,2.5369,2.5369,0,2.5219,2.5225,2.5246,2.5265,2.5283,2.5269,2.5283,2.5299,2.5324,2.5335,2.5353,2.5381,2.5403,2.5407,2.5428,2.5444,2.5438,2.545,2.5448,2.545,2.5385,2.5376,2.5454,2.5454,2.5454,2.5454,2.5454,2.5454,2.5262,2.5298,2.5297,2.5337,2.5343,2.537,2.5379,2.5391,2.54,2.5433,2.5451,2.5453,2.5462,2.5483,2.5503,2.5503,2.5511,2.5525,2.5523,2.5463,2.5454,2.5446,2.5437,2.5527,2.5528,2.5586,2.5587,2.5587]},{"header":{"parameterUnit":"m.s-1","parameterCategory":1,"la1":30.2991,"la2":30.254,"lo1":-89.0895,"lo2":-89.0444,"dy":0.0017,"dx":0.0017,"nx":28,"ny":28,"refTime":"2025-03-16T03:00:00:Z","depth":0,"parameterNumber":3,"parameterNumberName":"V-component_of_WINDS"},"data":[0,0,0,0,0,0,0,0,0,0,0,0,0,0,0,0,0,0,0,0,0,0,0,0,0,0,0,0,0,0,0,0,0,0,0,0,0,0,0,0,0,0,0,0,0,0,0,0,0,0,0,0,0,0,0,0,0,0,-5.1956,-5.1959,0,-5.224,-5.2244,-5.2247,-5.224,-5.2236,-5.2233,-5.2229,-5.2523,-5.2534,-5.2545,0,0,0,0,0,0,0,0,0,0,0,0,0,-5.1409,-5.1419,-5.1955,-5.1959,-5.1963,-5.224,-5.2244,-5.2248,-5.2241,-5.2236,-5.2232,-5.2227,-5.2519,-5.2533,-5.2546,0,0,0,0,0,0,0,0,0,0,0,0,0,-5.1665,-5.1422,-5.1955,-5.1993,-5.1999,-5.2239,-5.2244,-5.2249,-5.2242,-5.2236,-5.223,-5.2225,-5.2515,-5.2531,-5.2548,-5.277,0,0,-5.2601,-5.2608,0,0,0,0,0,0,0,0,-5.1651,-5.1685,-5.1983,-5.199,-5.1998,-5.2199,-5.2159,-5.2424,-5.2243,-5.215,-5.2229,-5.2222,-5.242,-5.2444,-5.2511,-5.2784,-5.2797,-5.2602,-5.2613,-5.262,-5.2625,0,0,0,0,0,0,0,-5.1633,-5.1673,-5.2068,-5.1988,-5.1997,-5.1996,-5.2026,-5.2209,-5.2314,-5.2157,-5.2158,-5.2191,-5.2423,-5.2494,-5.2518,-5.2801,-5.2602,-5.2617,-5.2627,-5.2634,-5.3274,-5.328,0,0,0,0,0,0,-5.1607,-5.1658,-5.2059,-5.2077,-5.1806,-5.2011,-5.2044,-5.214,-5.2312,-5.2333,-5.2196,-5.219,-5.2468,-5.2498,-5.2528,-5.2801,-5.262,-5.2636,-5.2646,-5.3267,-5.3275,-5.3283,0,0,0,0,0,0,-5.1595,-5.1643,-5.2048,-5.1868,-5.1919,-5.2026,-5.2134,-5.2149,-5.222,-5.2341,-5.236,-5.225,-5.2464,-5.2504,-5.2711,-5.2811,-5.2644,-5.2659,-5.3259,-5.327,-5.3279,-5.3349,0,0,0,0,0,0,-5.158,-5.1639,-5.1723,-5.187,-5.1929,-5.2225,-5.214,-5.2159,-5.225,-5.2245,-5.2396,-5.2416,-5.2463,-5.2685,-5.2728,-5.2832,-5.2673,-5.3251,-5.3264,-5.3276,-5.3338,-5.336,-5.3379,0,0,0,0,0,-5.156,-5.1732,-5.1728,-5.1776,-5.2037,-5.2231,-5.2265,-5.2314,-5.2258,-5.2345,-5.2423,-5.2411,-5.2793,-5.2706,-5.2754,-5.2865,-5.3245,-5.326,-5.3275,-5.3329,-5.3356,-5.3378,0,0,0,0,0,0,-5.1595,-5.1751,-5.1749,-5.1972,-5.2088,-5.2229,-5.234,-5.2341,-5.2476,-5.2465,-5.2522,-5.2556,-5.2764,-5.2835,-5.2735,-5.3091,-5.3012,-5.3037,-5.3037,-5.3063,-5.3083,-5.3062,-5.2687,0,0,0,0,0,-5.1628,-5.1772,-5.1901,-5.2086,-5.2144,-5.2232,-5.2318,-5.2347,-5.2469,-5.2518,-5.2611,-5.2731,-5.2879,-5.2974,-5.3116,-5.3348,-5.3382,-5.3448,-5.3468,-5.3484,-5.3506,-5.3636,-5.3668,-5.3332,-5.3332,-5.3332,0,0,-5.1699,-5.1803,-5.189,-5.2096,-5.2189,-5.2337,-5.2274,-5.2433,-5.2544,-5.2543,-5.2744,-5.2817,-5.2955,-5.3175,-5.3277,-5.3241,-5.3606,-5.3504,-5.3515,-5.3529,-5.3655,-5.3686,-5.3715,-5.3342,-5.334,-5.3339,0,0,-5.1905,-5.1997,-5.2162,-5.2257,-5.2398,-5.2456,-5.2496,-5.2637,-5.2685,-5.2888,-5.2891,-5.3024,-5.3276,-5.3375,-5.3458,-5.3703,-5.3698,-5.3747,-5.3854,-5.398,-5.4007,-5.4031,-5.412,-5.4151,-5.3768,-5.3768,-5.3769,0,-5.1976,-5.2199,-5.2247,-5.2408,-5.25,-5.2505,-5.2674,-5.2763,-5.2944,-5.3008,-5.2964,-5.3282,-5.3375,-5.362,-5.368,-5.3746,-5.3795,-5.3731,-5.3999,-5.4023,-5.4046,-5.4132,-5.4165,-5.3774,-5.3773,-5.3772,-5.3772,0,-5.228,-5.2435,-5.2552,-5.2726,-5.2831,-5.2994,-5.3069,-5.3169,-5.3188,-5.3251,-5.3459,-5.357,-5.3736,-5.3796,-5.3816,-5.4045,-5.4018,-5.3986,-5.3909,-5.4083,-5.4164,-5.4198,-5.3781,-5.3779,-5.3778,-5.3776,0,0,-5.2517,-5.2716,-5.2758,-5.2838,-5.2995,-5.3117,-5.3281,-5.3443,-5.3529,-5.3654,-5.3795,-5.4008,-5.398,-5.4075,-5.4106,-5.4217,-5.4406,-5.4172,-5.4176,-5.4213,-5.4667,-5.4692,-5.4729,-5.4403,-5.441,-5.4415,-5.4657,0,-5.274,-5.3032,-5.3081,-5.3338,-5.3483,-5.349,-5.3634,-5.3747,-5.381,-5.3943,-5.4012,-5.4164,-5.4114,-5.4172,-5.4281,-5.436,-5.4498,-5.4343,-5.4537,-5.4544,-5.4504,-5.4771,-5.4798,-5.502,-5.4689,-5.4694,-5.4698,0,-5.3041,-5.3173,-5.3444,-5.3583,-5.3646,-5.3774,-5.3928,-5.4054,-5.4182,-5.4221,-5.4327,-5.4346,-5.4519,-5.4432,-5.4673,-5.4566,-5.4648,-5.4699,-5.4709,-5.4731,-5.4632,-5.4802,-5.5092,-5.5126,-5.4748,-5.4744,-5.4741,0,-5.3188,-5.3435,-5.3629,-5.3697,-5.3864,-5.3954,-5.4028,-5.4151,-5.4245,-5.4379,-5.4442,-5.4594,-5.4678,-5.4796,-5.4857,-5.4788,-5.5094,-5.5012,-5.5132,-5.5131,-5.5198,-5.5193,-5.5507,-5.5248,-5.5247,-5.5246,-5.5246,0,-5.3435,-5.3601,-5.3698,-5.3818,-5.4005,-5.406,-5.4244,-5.4315,-5.4425,-5.456,-5.4575,-5.4702,-5.4773,-5.4911,-5.4959,-5.5152,-5.5189,-5.5227,-5.5238,-5.5227,-5.5222,-5.5283,-5.527,-5.5255,-5.5253,-5.5252,-5.525,0,-5.3632,-5.3703,-5.3916,-5.4057,-5.4096,-5.4228,-5.4348,-5.4466,-5.4528,-5.4699,-5.4743,-5.4841,-5.5005,-5.5076,-5.5277,-5.5309,-5.5531,-5.553,-5.5487,-5.5492,-5.5609,-5.5598,-5.5974,-5.6028,-5.5731,-5.5733,-5.5736,0,-5.3785,-5.3913,-5.4067,-5.4158,-5.4235,-5.4381,-5.4478,-5.4537,-5.4638,-5.4795,-5.4894,-5.5057,-5.5191,-5.5451,-5.5542,-5.5696,-5.57,-5.5822,-5.5724,-5.5709,-5.5705,-5.5698,-5.5712,-5.584,-5.5843,-5.5845,-5.5847,0,-5.405,-5.408,-5.4218,-5.437,-5.4485,-5.4607,-5.4727,-5.4801,-5.4879,-5.4992,-5.5158,-5.5262,-5.5468,-5.563,-5.579,-5.5868,-5.5872,-5.5877,-5.5914,-5.5905,-5.5876,-5.5895,-5.5538,-5.5869,-5.5867,-5.5865,-5.5864,-5.5863,-5.4232,-5.4347,-5.4474,-5.4628,-5.4724,-5.4836,-5.4954,-5.5031,-5.5171,-5.5343,-5.5369,-5.5548,-5.5675,-5.589,-5.5974,-5.6115,-5.6086,-5.6138,-5.6151,-5.6164,-5.6172,-5.5851,-5.6144,-5.6144,-5.6143,-5.6143,-5.6142,0,-5.45,-5.4582,-5.4723,-5.489,-5.5012,-5.5004,-5.5137,-5.524,-5.5396,-5.5514,-5.5646,-5.5838,-5.5997,-5.61,-5.626,-5.6354,-5.636,-5.6394,-5.6389,-5.6407,-5.6188,-5.6142,-5.6386,-5.6386,-5.6386,-5.6386,-5.6386,-5.6386,-5.4654,-5.4848,-5.4893,-5.5136,-5.5217,-5.5392,-5.5469,-5.5573,-5.5667,-5.5882,-5.6013,-5.6079,-5.6192,-5.636,-5.6506,-5.6532,-5.6592,-5.6628,-5.6653,-5.6447,-5.6422,-5.6398,-5.6355,-5.664,-5.664,-5.686,-5.6862,-5.6864]}]]